Location: Colossi of Memnon
(25.7167°N, 32.6167°E)
Time: 04:25:34
(UTC+00:00)

Alouette 2 Rocket - Pass Details

Date: 05 March 2021
Orbit: 503 x 2649 km, 79.8° (Epoch: 10 April)

Event Time Altitude Azimuth Distance (km) Brightness Sun altitude
Exits shadow 02:45:14 - 195° (SSW) 2,546 6.5 -19.7°
Reaches altitude 10° 02:46:20 10° 197° (SSW) 2,099 6.1 -19.4°
Maximum altitude 02:50:53 70° 281° (W) 914 4.1 -18.4°
Drops below altitude 10° 02:57:57 10° 4° (N) 3,204 7.3 -16.8°
Sets 03:01:24 0° 7° (N) 4,525 8.1 -16.0°
